Content
SEND FEEDBACK

Daily
Averages
Monthly
Summary
United States of America

DEDEDO, GUAM


Home > North America > United States > Guam
Elevation: 364 feet     Latitude: 13 33N     Longitude: 144 49E

WEATHER
 
SELECT A DAY
Number of Records: 209,044;   Date Range: 1/1/95 - 7/29/14
 
SHARE

PRINT THIS DATA

[ ← Previous Day ]
WEATHER ALMANAC - SEPTEMBER 8, 2013
[ Next Day → ]
[ °C ]   °F
Weather ElementAverageHighLow
Temperature82.7 °F88 °F (11:54 am)77 °F (1:54 am)
Dewpoint76 °F78.1 °F (7:54 am)73.4 °F (1:16 am)
Humidity80.5 %94 % (1:54 am)65 % (1:54 pm)
Barometer29.87 in29.92 in (1:06 am)29.81 in (4:54 pm)
Wind Speed5.1 mph10.4 mph (6:19 pm)
Wind Gust16.1 mph (1:06 am)
Weather ElementAverage
Visibility9.4 mi
Wind DirectionE (90.4 °)

Weather ElementTotal
Precipitation0.34 in
Cooling Degree Days17.5 (Base 65)
Growing Degree Days32.5 (Base 50)
Averaged from 28 records on September 8, 2013
WEATHER CONDITIONS BREAKOUT
WIND DIRECTION BREAKOUT
WEATHER BY HOUR - SEPTEMBER 8, 2013
[ °C ]   °F
Local TimeTemperatureDewpointHumidityBarometerVisibilityWind DirectionWind SpeedGust SpeedPrecipitationEventsConditions
1:06 AM78.8 °F75.2 °F89 %29.92 in2.5 miVariable3.5 mph16.1 mph0.03 inRainHeavy Rain
1:16 AM78.8 °F73.4 °F83 %29.91 in4.0 miCalm0.11 inRainLight Rain
1:54 AM77.0 °F75.0 °F94 %29.87 in10.0 miCalm0.11 inClear
2:54 AM78.1 °F75.9 °F93 %29.86 in10.0 miCalmClear
3:54 AM78.1 °F75.0 °F90 %29.86 in10.0 miEast (100°)4.6 mph0.00 inPartly Cloudy
4:54 AM77.0 °F75.0 °F94 %29.88 in7.0 miCalm0.08 inRainRain
5:54 AM78.1 °F75.9 °F93 %29.88 in10.0 miNorth (360°)3.5 mph0.01 inPartly Cloudy
6:54 AM78.1 °F75.0 °F90 %29.88 in10.0 miNE (50°)3.5 mphClear
7:54 AM82.9 °F78.1 °F85 %29.87 in10.0 miESE (120°)3.5 mphClear
8:54 AM84.0 °F77.0 °F79 %29.87 in10.0 miESE (120°)5.8 mphPartly Cloudy
9:54 AM84.9 °F75.9 °F74 %29.88 in10.0 miESE (110°)8.1 mphPartly Cloudy
10:54 AM84.9 °F75.9 °F74 %29.87 in10.0 miSE (130°)4.6 mphPartly Cloudy
11:54 AM88.0 °F75.9 °F67 %29.87 in10.0 miESE (120°)5.8 mphPartly Cloudy
12:54 PM87.1 °F75.0 °F67 %29.85 in10.0 miSE (140°)6.9 mphPartly Cloudy
1:54 PM88.0 °F75.0 °F65 %29.83 in10.0 miESE (110°)9.2 mphPartly Cloudy
2:54 PM86.0 °F75.0 °F70 %29.83 in10.0 miESE (120°)3.5 mphScattered Clouds
3:54 PM86.0 °F77.0 °F74 %29.82 in10.0 miNorth (10°)4.6 mphMostly Cloudy
4:12 PM86.0 °F77.0 °F74 %29.84 in10.0 miCalmScattered Clouds
4:36 PM86.0 °F77.0 °F74 %29.84 in10.0 miNorth (350°)6.9 mphMostly Cloudy
4:54 PM86.0 °F77.0 °F74 %29.81 in10.0 miNNW (340°)5.8 mphMostly Cloudy
5:54 PM84.9 °F77.0 °F77 %29.83 in10.0 miESE (110°)4.6 mphMostly Cloudy
6:19 PM84.2 °F77.0 °F79 %29.87 in10.0 miNNE (30°)10.4 mphMostly Cloudy
6:54 PM84.0 °F77.0 °F79 %29.85 in10.0 miNE (40°)8.1 mphPartly Cloudy
7:54 PM82.0 °F75.9 °F82 %29.87 in10.0 miNE (40°)9.2 mphPartly Cloudy
8:54 PM82.0 °F73.9 °F76 %29.89 in10.0 miNE (40°)6.9 mphPartly Cloudy
9:54 PM82.0 °F75.9 °F82 %29.90 in10.0 miNNE (20°)6.9 mphPartly Cloudy
10:54 PM82.0 °F78.1 °F88 %29.89 in10.0 miNE (40°)6.9 mphPartly Cloudy
11:54 PM81.0 °F77.0 °F88 %29.88 in10.0 miNNE (30°)9.2 mphPartly Cloudy
Hourly data recorded from PGUM, located miles away from Dededo, Guam







STORIES FROM OUR PARTNERS